Clear Sky Current Weather (METAR) For Antalya Airport

All times on the weather descriptions are local

Observed at 04:20 - (28 mins ago)

Clear Sky

24°C

Clear Sky
Clouds:
Wind: 340° at 05 knots
Visibility: Greater than 10km
QNH: 1006
Dew Point: 22°C
Runway in Use: Runways 36L/C/R

Sunrise Today: 06:27
Sunset Today: 19:25

Forecast Weather (TAF) For Antalya Airport

Issued at 03:00 - (28 days ago)


Runway in Use: Unable to determine, wind is clam

Forecast valid until 03:00 on Tuesday

METAR/TAF RAW METAR / TAF

LTAI 020120Z 34005KT CAVOK 24/22 Q1006 NOSIG RMK RWY18C 34004KT RWY36R 34004KT RWY18L 35002KT

Weather Widget

Put weather from any of our airports on your website with our weather widget.

Find Another Search

Airport Search


Please Wait Please Wait - Loading
Close
Close

Login

Username:

Password:

Remember Me:

Remember me on this computer

Forgotten your password? Get a reset password sent to your registered e-mail address

Close

User Private Message

Subject:

Message: